Location: Peebles
(55.6412°N, 3.1714°W)
Time: 01:18:43
(UTC+01:00)

deb r/b Ablestar - Pass Details

Date: 06 July 2022
Orbit: 859 x 1154 km, 67.2° (Epoch: 13 August)

Event Time Altitude Azimuth Distance (km) Brightness Sun altitude
Rises 02:59:49 0° 316° (NW) 4,027 ? -8.7°
Reaches altitude 10° 03:03:16 10° 301° (WNW) 3,065 ? -8.5°
Maximum altitude 03:08:19 21° 257° (WSW) 2,352 ? -8.2°
Drops below altitude 10° 03:13:17 10° 213° (SSW) 3,004 ? -7.9°
Enters shadow 03:13:35 - 212° (SSW) 3,072 ? -7.9°
